• In Belarus
  • List of Countries
  • For 7 days
  • Water Temperature
  • Satellite Maps
  • Weather Map
  • Weather Widgets
  • user-avatar
    Login

    Hourly Weather Dushanbe

    Today, 23 January, Tuesday

    Time Temperature Precipitation Wind Pressure Humidity
    00:00 +4°C° 0 mm 0 mps 688 mmHg 54%
    01:00 +3°C° 0 mm 0 mps 688 mmHg 54%
    02:00 +4°C° 0 mm 1 mps 688 mmHg 54%
    03:00 +4°C° 0 mm 1 mps 688 mmHg 53%
    04:00 +4°C° 0 mm 1 mps 688 mmHg 53%
    05:00 +4°C° 0 mm 1 mps 687 mmHg 51%
    06:00 +4°C° 0 mm 1 mps 687 mmHg 50%
    07:00 +3°C° 0 mm 1 mps 687 mmHg 49%
    08:00 +3°C° 0 mm 1 mps 687 mmHg 48%
    09:00 +5°C° 0 mm 1 mps 688 mmHg 45%
    10:00 +7°C° 0 mm 1 mps 688 mmHg 41%
    11:00 +10°C° 0 mm 1 mps 687 mmHg 38%
    12:00 +10°C° 0 mm 1 mps 687 mmHg 38%
    13:00 +11°C° 0 mm 1 mps 687 mmHg 37%
    14:00 +11°C° 0 mm 1 mps 687 mmHg 37%
    15:00 +10°C° 0 mm 1 mps 686 mmHg 39%
    16:00 +10°C° 0 mm 1 mps 686 mmHg 41%
    17:00 +9°C° 0 mm 1 mps 686 mmHg 44%
    18:00 +8°C° 0 mm 1 mps 686 mmHg 44%
    19:00 +6°C° 0 mm 2 mps 686 mmHg 44%
    20:00 +6°C° 0 mm 2 mps 686 mmHg 44%
    21:00 +5°C° 0 mm 2 mps 685 mmHg 42%
    22:00 +5°C° 0 mm 2 mps 685 mmHg 41%
    23:00 +5°C° 0 mm 2 mps 685 mmHg 39%

    Tomorrow, 24 January, Wednesday

    Time Temperature Precipitation Wind Pressure Humidity
    00:00 +5°C° 0 mm 2 mps 685 mmHg 38%
    01:00 +4°C° 0 mm 3 mps 685 mmHg 38%
    02:00 +4°C° 0 mm 3 mps 685 mmHg 37%
    03:00 +4°C° 0 mm 3 mps 685 mmHg 37%
    04:00 +4°C° 0 mm 3 mps 685 mmHg 37%
    05:00 +4°C° 0 mm 3 mps 685 mmHg 36%
    06:00 +5°C° 0 mm 2 mps 685 mmHg 36%
    07:00 +5°C° 0 mm 2 mps 685 mmHg 36%
    08:00 +5°C° 0 mm 2 mps 685 mmHg 36%
    09:00 +7°C° 0 mm 2 mps 685 mmHg 34%
    10:00 +9°C° 0 mm 2 mps 686 mmHg 32%
    11:00 +12°C° 0 mm 2 mps 686 mmHg 30%
    12:00 +12°C° 0 mm 2 mps 686 mmHg 30%
    13:00 +13°C° 0 mm 2 mps 686 mmHg 29%
    14:00 +13°C° 0 mm 2 mps 686 mmHg 28%
    15:00 +13°C° 0 mm 2 mps 686 mmHg 30%
    16:00 +12°C° 0 mm 2 mps 686 mmHg 32%
    17:00 +10°C° 0 mm 2 mps 686 mmHg 34%
    18:00 +9°C° 0 mm 2 mps 686 mmHg 35%
    19:00 +8°C° 0 mm 2 mps 686 mmHg 36%
    20:00 +7°C° 0 mm 2 mps 686 mmHg 37%
    21:00 +7°C° 0 mm 2 mps 687 mmHg 37%
    22:00 +7°C° 0 mm 2 mps 687 mmHg 36%
    23:00 +7°C° 0 mm 2 mps 687 mmHg 36%

    Day after tomorrow, 25 January, Thursday

    Time Temperature Precipitation Wind Pressure Humidity
    00:00 +6°C° 0 mm 2 mps 687 mmHg 36%
    01:00 +6°C° 0 mm 2 mps 687 mmHg 36%
    02:00 +6°C° 0 mm 2 mps 687 mmHg 36%
    03:00 +6°C° 0 mm 2 mps 687 mmHg 37%
    04:00 +6°C° 0 mm 2 mps 687 mmHg 37%
    05:00 +5°C° 0 mm 2 mps 687 mmHg 38%
    06:00 +5°C° 0 mm 2 mps 687 mmHg 39%
    07:00 +5°C° 0 mm 2 mps 688 mmHg 41%
    08:00 +5°C° 0 mm 2 mps 688 mmHg 42%
    09:00 +6°C° 0 mm 2 mps 689 mmHg 41%
    10:00 +8°C° 0 mm 2 mps 689 mmHg 40%
    11:00 +9°C° 0 mm 2 mps 690 mmHg 39%
    12:00 +9°C° 0.1 mm 2 mps 690 mmHg 39%
    13:00 +9°C° 0.1 mm 2 mps 690 mmHg 39%
    14:00 +10°C° 0.1 mm 2 mps 690 mmHg 39%
    15:00 +9°C° 0 mm 2 mps 690 mmHg 41%
    16:00 +9°C° 0 mm 2 mps 690 mmHg 43%
    17:00 +8°C° 0 mm 2 mps 690 mmHg 46%
    18:00 +7°C° 0 mm 2 mps 690 mmHg 48%
    19:00 +6°C° 0 mm 2 mps 690 mmHg 51%
    20:00 +5°C° 0 mm 2 mps 690 mmHg 53%
    21:00 +4°C° 0 mm 2 mps 690 mmHg 55%
    22:00 +4°C° 0 mm 2 mps 690 mmHg 56%
    23:00 +4°C° 0 mm 2 mps 690 mmHg 57%

    26 January, Friday

    Time Temperature Precipitation Wind Pressure Humidity
    00:00 +3°C° 0 mm 2 mps 690 mmHg 58%
    01:00 +3°C° 0 mm 2 mps 690 mmHg 58%
    02:00 +3°C° 0 mm 2 mps 690 mmHg 59%
    03:00 +3°C° 0 mm 2 mps 690 mmHg 59%
    04:00 +3°C° 0 mm 2 mps 690 mmHg 58%
    05:00 +2°C° 0 mm 2 mps 690 mmHg 58%
    06:00 +2°C° 0 mm 2 mps 690 mmHg 58%
    07:00 +2°C° 0 mm 2 mps 690 mmHg 57%
    08:00 +2°C° 0 mm 2 mps 691 mmHg 57%
    09:00 +4°C° 0 mm 2 mps 691 mmHg 53%
    10:00 +6°C° 0 mm 2 mps 691 mmHg 50%
    11:00 +8°C° 0 mm 2 mps 691 mmHg 47%
    12:00 +8°C° 0 mm 2 mps 691 mmHg 46%
    13:00 +8°C° 0 mm 2 mps 691 mmHg 45%
    14:00 +9°C° 0 mm 2 mps 690 mmHg 43%
    15:00 +8°C° 0.1 mm 2 mps 690 mmHg 45%
    16:00 +8°C° 0.1 mm 2 mps 690 mmHg 46%
    17:00 +8°C° 0.1 mm 2 mps 689 mmHg 47%
    18:00 +7°C° 0.1 mm 2 mps 689 mmHg 49%
    19:00 +6°C° 0.1 mm 2 mps 689 mmHg 51%
    20:00 +5°C° 0.1 mm 2 mps 689 mmHg 53%
    21:00 +5°C° 0.1 mm 2 mps 689 mmHg 54%
    22:00 +4°C° 0.1 mm 2 mps 689 mmHg 54%
    23:00 +4°C° 0.1 mm 2 mps 689 mmHg 55%

    27 January, Saturday

    Time Temperature Precipitation Wind Pressure Humidity
    00:00 +4°C° 0.1 mm 2 mps 689 mmHg 55%
    01:00 +4°C° 0.1 mm 2 mps 689 mmHg 56%
    02:00 +4°C° 0.1 mm 2 mps 688 mmHg 57%
    03:00 +4°C° 0.1 mm 2 mps 688 mmHg 58%
    04:00 +4°C° 0.1 mm 2 mps 688 mmHg 60%
    05:00 +3°C° 0.1 mm 2 mps 688 mmHg 61%
    06:00 +3°C° 0.1 mm 2 mps 688 mmHg 62%
    07:00 +3°C° 0.1 mm 2 mps 688 mmHg 63%
    08:00 +3°C° 0.1 mm 2 mps 688 mmHg 63%
    09:00 +4°C° 0.1 mm 2 mps 688 mmHg 60%
    10:00 +5°C° 0.1 mm 2 mps 689 mmHg 56%
    11:00 +7°C° 0.1 mm 2 mps 689 mmHg 52%
    12:00 +7°C° 0.2 mm 2 mps 689 mmHg 52%
    13:00 +7°C° 0.2 mm 2 mps 688 mmHg 52%
    14:00 +7°C° 0.2 mm 2 mps 688 mmHg 52%
    15:00 +7°C° 0.2 mm 2 mps 688 mmHg 54%
    16:00 +6°C° 0.2 mm 2 mps 688 mmHg 55%
    17:00 +6°C° 0.2 mm 2 mps 688 mmHg 57%
    18:00 +5°C° 0.2 mm 2 mps 688 mmHg 60%
    19:00 +5°C° 0.2 mm 2 mps 688 mmHg 63%
    20:00 +4°C° 0.2 mm 2 mps 688 mmHg 65%
    21:00 +4°C° 0.2 mm 2 mps 688 mmHg 67%
    22:00 +4°C° 0.2 mm 2 mps 688 mmHg 69%
    23:00 +4°C° 0.2 mm 2 mps 688 mmHg 71%

    28 January, Sunday

    Time Temperature Precipitation Wind Pressure Humidity
    00:00 +3°C° 0.3 mm 2 mps 688 mmHg 73%
    01:00 +3°C° 0.3 mm 2 mps 688 mmHg 74%
    02:00 +3°C° 0.3 mm 2 mps 688 mmHg 76%
    03:00 +3°C° 0.2 mm 2 mps 688 mmHg 76%
    04:00 +2°C° 0.2 mm 2 mps 687 mmHg 77%
    05:00 +2°C° 0.2 mm 2 mps 687 mmHg 77%
    06:00 +2°C° 0.1 mm 2 mps 687 mmHg 77%
    07:00 +2°C° 0.1 mm 2 mps 688 mmHg 77%
    08:00 +2°C° 0.1 mm 2 mps 688 mmHg 76%
    09:00 +3°C° 0.1 mm 2 mps 688 mmHg 72%
    10:00 +4°C° 0.1 mm 2 mps 688 mmHg 68%
    11:00 +5°C° 0.1 mm 2 mps 688 mmHg 64%
    12:00 +6°C° 0.1 mm 2 mps 688 mmHg 63%
    13:00 +7°C° 0.1 mm 1 mps 688 mmHg 62%
    14:00 +7°C° 0.1 mm 1 mps 687 mmHg 61%
    15:00 +7°C° 0.1 mm 1 mps 687 mmHg 62%
    16:00 +7°C° 0.1 mm 1 mps 687 mmHg 63%
    17:00 +6°C° 0.1 mm 1 mps 687 mmHg 64%
    18:00 +6°C° 0.1 mm 1 mps 687 mmHg 66%
    19:00 +5°C° 0.1 mm 1 mps 687 mmHg 68%
    20:00 +5°C° 0.1 mm 1 mps 687 mmHg 69%
    21:00 +4°C° 0.3 mm 1 mps 687 mmHg 70%
    22:00 +4°C° 0.3 mm 1 mps 687 mmHg 71%
    23:00 +4°C° 0.3 mm 1 mps 687 mmHg 72%
    Show more